SCP
0 0 0 0 0 0 0 0 0 0 0 0 0 0 0 0 0 0 0 1 1 1 1 1 1 1 1 1 1 0 0 0 0 0 0 0 0 0 0 0 0 1 1
0 0 0 0 0 0 0 0 0 0 0 0 0 0 0 0 0 0 0 0 0 1 1 1 1 1 1 1 1 1 0 0 0 0 0 0 0 0 0 0 0 0 1
0 0 0 0 0 0 0 0 0 0 0 0 0 0 0 0 0 0 0 0 0 0 1 1 1 1 1 1 1 1 0 0 0 0 0 0 0 0 0 0 0 0 0
0 0 0 0 0 0 0 0 0 0 0 0 0 0 0 0 0 0 0 0 0 0 0 0 0 0 0 1 1 0 0 0 0 0 0 0 0 0 0 0 0 0 0
0 0 0 0 0 0 0 0 0 0 0 0 0 0 0 0 0 0 0 0 0 0 0 0 0 0 0 0 0 0 0 0 0 0 0 0 0 0 0 0 0 0 0
0 0 0 0 0 0 0 0 0 0 0 0 0 0 0 0 0 0 0 0 0 0 0 0 0 0 0 0 0 0 0 0 0 0 0 0 0 0 0 0 0 0 0
0 0 0 0 0 0 0 0 0 0 0 0 0 0 0 0 0 0 0 0 0 0 0 0 0 0 0 0 0 0 0 0 0 0 0 0 0 0 0 0 0 0 0
0 0 0 0 0 0 0 0 0 0 0 0 0 0 0 0 0 0 0 0 0 0 0 0 0 0 0 0 0 0 0 0 0 0 0 0 0 0 0 0 0 0 0
0 0 0 0 0 0 0 0 0 0 0 0 0 0 0 0 0 0 0 0 0 0 0 0 0 0 0 0 0 0 0 0 0 0 0 0 0 0 0 0 0 0 0
0 0 0 0 0 0 0 0 0 0 0 0 0 0 0 0 0 0 0 0 0 0 0 0 0 0 0 0 0 0 0 0 0 0 0 0 0 0 0 0 0 0 0
0 0 0 0 0 0 0 0 0 0 0 0 0 0 0 0 0 0 0 0 0 0 0 0 0 0 0 0 0 0 0 0 0 0 0 0 0 0 0 0 0 0 0
0 0 0 0 0 0 0 0 0 0 0 0 0 0 0 0 0 0 0 0 0 0 0 0 0 0 0 0 0 0 0 0 0 0 0 0 0 0 0 0 0 0 0
0 0 0 0 0 0 0 0 0 0 0 0 0 0 0 0 0 0 0 0 0 0 0 0 0 0 0 0 0 0 0 0 0 0 0 0 0 0 0 0 0 0 0
0 0 0 0 0 0 0 0 0 0 0 0 0 0 0 0 0 0 0 0 0 0 0 0 0 0 0 0 0 0 0 0 0 0 0 0 0 0 0 0 0 0 0
0 0 0 0 0 0 0 0 0 0 0 0 0 0 0 0 0 0 0 0 0 0 0 0 0 0 0 0 0 0 0 0 0 0 0 0 0 0 0 0 0 0 0
0 0 0 0 0 0 0 0 0 0 0 0 0 0 0 0 0 0 0 0 0 0 0 0 0 0 0 0 0 0 0 0 0 0 0 0 0 0 0 0 0 0 0
0 0 0 0 0 0 0 0 0 0 0 0 0 0 0 0 0 0 0 0 0 -0 0 0 0 0 0 0 0 0 0 0 0 0 0 0 0 0 0 0 0 0 0
0 0 0 0 0 0 0 0 0 0 0 0 0 0 0 0 0 0 0 0 0 0 0 0 0 0 0 0 0 0 0 0 0 0 0 0 0 0 0 0 0 0 0
0 0 0 0 0 0 0 0 0 0 0 0 0 0 0 0 0 0 0 0 0 0 0 0 0 0 0 0 0 0 0 0 0 0 0 0 0 0 0 0 0 0 0
0 0 0 0 0 0 0 0 0 0 0 0 0 0 0 0 0 0 0 0 0 0 0 0 0 0 0 0 0 0 0 0 0 0 0 0 0 0 0 0 0 0 0
0 0 0 0 0 0 0 0 0 0 0 0 0 0 0 0 0 0 0 0 0 0 0 0 0 0 0 0 0 0 0 0 0 0 0 0 0 0 0 0 0 0 0
0 0 0 0 0 0 0 0 0 0 0 0 0 0 0 0 0 0 0 0 0 0 0 0 0 0 0 0 0 0 0 0 0 0 0 0 0 0 0 0 0 0 0
0 0 0 0 0 0 0 0 0 0 0 0 0 0 0 0 0 0 0 0 0 0 0 0 0 0 0 0 0 0 0 0 0 0 0 0 0 0 0 0 0 0 0
0 0 0 0 0 0 0 0 0 0 0 0 0 0 0 0 0 0 0 0 0 0 0 0 0 0 0 0 0 0 0 0 0 0 0 0 0 0 0 0 0 0 0
0 0 0 0 0 0 0 0 0 0 0 0 0 0 0 0 0 0 0 0 0 0 0 0 0 0 0 0 0 0 0 0 0 0 0 0 0 0 0 0 0 0 0
0 0 0 0 0 0 0 0 0 0 0 0 0 0 0 0 0 0 0 0 0 0 0 0 0 0 0 0 0 0 0 0 0 0 0 0 0 0 0 0 0 0 0
Wind_Speed
6 6 6 6 6 6 6 7 6 6 7 7 7 6 6 6 5 3 2 1 2 2 3 4 4 4 4 4 3 3 3 3 3 2 1 1 3 3 3 3 3 3 3
5 5 6 6 6 7 7 7 7 7 7 7 6 6 6 6 6 5 4 2 1 1 2 3 4 3 4 4 3 4 3 4 4 4 2 2 2 3 4 4 3 3 3
4 5 5 6 6 7 7 7 7 7 7 7 7 7 7 6 6 5 4 4 4 2 2 2 3 4 4 3 3 3 3 3 3 4 3 2 2 2 4 4 5 4 4
4 4 5 6 6 6 6 6 7 7 7 7 7 7 6 6 5 5 5 4 4 4 3 2 1 2 3 3 3 3 3 4 4 4 3 3 2 3 3 4 4 3 4
3 4 4 5 5 5 6 6 6 7 7 6 7 7 7 5 5 5 4 4 4 4 3 2 1 2 3 3 3 3 4 3 3 4 3 3 3 4 4 3 5 5 4
2 3 4 5 5 5 6 6 6 7 7 7 7 7 7 6 9 9 6 4 4 4 3 3 2 3 2 2 3 5 5 5 5 4 3 4 4 4 4 5 5 5 3
2 3 4 4 4 5 5 6 6 6 6 6 7 7 7 8 11 11 10 5 5 4 4 3 3 3 3 2 3 4 3 3 5 4 5 4 5 6 7 6 5 4 4
2 3 3 4 4 4 5 5 5 4 5 5 6 7 7 9 12 10 9 6 4 4 4 3 3 3 2 3 4 4 3 3 2 3 3 3 4 5 6 6 7 7 6
3 3 3 3 3 4 4 5 4 4 4 4 4 6 7 8 13 11 8 4 4 5 4 4 3 2 4 5 5 5 4 3 4 6 6 5 7 9 9 8 7 7 5
4 4 3 2 2 3 3 3 3 2 3 4 4 5 6 7 12 12 9 3 4 4 4 4 5 4 4 5 3 4 4 3 3 5 6 7 7 8 8 6 7 7 5
3 3 3 2 2 2 2 2 2 2 3 4 4 4 5 7 10 12 10 4 3 3 3 4 4 5 6 6 4 3 4 4 4 5 5 5 5 5 4 4 3 4 4
3 3 3 3 2 1 1 2 2 2 3 3 4 4 4 5 7 9 11 8 5 3 3 3 3 5 6 5 4 5 8 7 4 5 5 4 4 4 4 5 6 6 5
3 4 3 3 2 1 1 1 1 1 2 2 3 3 4 4 5 10 10 9 8 3 2 4 5 6 6 5 6 7 6 4 4 4 4 3 3 3 4 4 6 7 8
5 5 4 3 3 2 1 1 1 1 1 2 2 2 3 3 3 4 4 4 5 4 3 4 6 7 5 5 5 5 3 3 4 4 4 3 3 3 3 3 3 4 5
6 5 4 4 4 3 3 3 3 4 4 3 2 2 2 3 4 6 4 3 2 1 1 2 3 3 3 3 3 3 3 3 3 3 3 3 3 3 3 3 3 3 3
6 6 5 4 4 3 3 3 6 7 8 9 8 5 4 6 7 7 6 5 3 1 2 2 1 1 1 1 2 2 2 2 2 3 3 3 3 3 3 2 3 3 3
8 7 5 4 4 4 4 4 4 4 6 8 9 9 8 7 6 5 4 4 3 2 2 1 1 0 0 0 1 1 1 1 1 2 3 3 3 3 3 3 3 3 3
9 9 7 5 5 5 5 5 4 4 4 4 5 9 9 8 7 5 3 1 1 1 1 1 2 1 1 1 1 1 1 1 2 2 2 3 3 3 3 3 3 3 3
8 7 6 6 5 5 5 5 5 5 5 4 3 4 6 7 6 6 3 2 2 2 2 2 2 2 2 2 2 2 2 2 2 2 2 3 3 3 3 3 3 5 3
8 13 10 6 6 5 5 5 5 5 5 5 5 5 3 3 3 4 4 4 4 4 4 4 3 3 3 3 3 3 2 2 3 2 3 3 3 3 4 4 4 4 3
7 8 13 8 7 7 7 7 7 6 6 6 7 6 8 6 6 6 5 5 6 6 5 5 4 4 4 3 3 4 4 3 3 3 3 3 4 3 3 4 4 4 3
6 7 7 8 8 8 8 7 7 7 8 8 6 6 10 6 6 6 6 7 7 6 6 5 5 5 5 5 5 5 5 5 4 4 4 4 4 4 3 3 4 4 4
6 7 7 8 8 10 9 7 8 8 8 8 7 6 6 7 7 7 8 7 7 6 6 6 6 5 5 5 6 6 7 7 6 6 6 5 5 4 4 4 5 4 5
7 8 9 8 8 8 8 9 9 9 9 9 8 7 7 8 8 9 8 7 6 7 6 7 8 9 10 8 6 6 6 6 6 6 8 7 6 5 5 4 5 5 5
7 7 8 8 8 9 9 9 9 9 9 9 9 8 8 8 8 8 8 7 8 8 9 9 7 9 11 12 10 9 11 13 11 7 7 6 7 7 6 5 5 5 5
8 7 7 7 8 8 9 9 10 10 10 10 9 9 9 9 9 8 8 7 8 8 8 8 10 12 12 11 13 14 15 15 15 14 8 7 7 7 7 5 7 5 5
Wind_Direction
350 350 355 354 356 1 6 1 356 355 356 358 358 1 3 3 357 355 349 289 204 193 188 185 187 177 171 174 178 175 176 167 179 164 146 140 156 154 141 144 149 152 160
345 351 354 354 357 3 360 354 354 358 358 359 357 2 4 5 4 7 8 16 63 147 172 175 175 164 170 165 171 177 178 177 168 162 152 144 138 149 138 134 131 132 128
350 357 357 357 359 358 354 352 356 358 357 359 2 4 1 0 2 6 13 27 39 53 78 124 146 150 164 153 159 175 178 175 158 150 150 134 112 126 123 116 113 105 111
355 0 358 352 351 349 350 355 357 358 360 360 359 358 356 356 2 9 21 35 40 43 45 66 107 144 162 158 171 180 171 168 160 151 146 138 128 128 131 132 124 109 107
356 356 346 342 348 354 356 355 357 1 3 357 360 360 358 359 7 14 22 35 39 40 31 28 58 111 159 170 169 175 171 167 158 160 157 149 151 152 156 143 134 120 96
344 340 339 348 355 356 353 353 359 1 359 3 5 1 3 3 9 25 30 31 33 41 36 21 34 48 65 120 149 166 174 173 164 161 160 161 162 153 143 143 137 140 133
324 331 338 345 351 351 353 358 358 355 358 3 2 3 1 357 19 31 36 38 36 35 32 29 40 40 53 77 91 106 123 152 165 160 161 169 165 164 153 148 145 133 119
308 320 329 340 343 348 357 358 352 350 357 359 1 360 360 4 18 29 39 39 38 32 24 27 41 32 48 94 97 86 72 63 110 140 157 168 161 156 152 143 132 111 95
287 298 309 324 334 344 352 347 345 351 358 1 358 3 4 359 14 29 37 28 34 28 20 20 24 40 59 89 100 101 86 65 70 90 101 111 129 137 136 130 134 134 124
262 275 293 306 316 326 332 332 336 344 347 357 5 3 3 358 7 22 28 26 28 19 15 14 23 47 64 79 99 111 105 86 88 85 81 81 95 115 123 139 149 146 131
251 270 289 296 294 300 326 335 337 349 359 3 2 357 1 1 2 15 22 24 16 18 19 9 8 39 63 72 80 90 110 109 96 97 91 86 84 86 86 87 101 136 137
237 256 273 285 293 319 338 340 351 359 3 358 354 351 351 353 358 7 20 25 22 26 11 354 5 43 63 75 81 98 103 97 93 94 91 86 84 83 82 82 82 74 71
227 246 258 272 276 278 280 309 334 350 347 340 347 343 335 340 350 6 14 19 20 24 3 15 37 50 54 63 80 91 91 91 96 95 96 87 79 90 94 89 80 81 74
225 242 246 251 261 258 246 239 247 269 290 307 316 320 323 329 341 348 350 356 7 18 13 20 42 52 55 60 65 63 65 85 100 105 104 92 85 89 87 88 95 91 83
225 236 240 238 242 249 245 232 228 229 212 223 241 247 280 308 305 324 335 332 333 339 25 32 30 29 42 46 50 55 60 76 86 92 105 105 102 98 87 80 93 87 95
222 231 228 228 232 232 244 267 242 234 243 237 229 222 236 250 283 313 330 334 334 59 81 66 53 43 54 65 82 72 65 83 96 108 113 115 118 116 104 85 81 100 113
217 224 219 217 220 223 222 232 266 271 249 246 242 238 237 252 272 296 318 337 349 103 94 116 140 152 130 106 110 110 111 103 111 120 125 128 127 121 117 116 110 106 112
218 225 219 216 215 216 218 220 221 237 265 272 252 241 240 243 251 266 288 335 354 40 171 195 208 207 198 188 180 166 148 133 129 136 137 140 141 137 136 140 141 139 138
216 221 219 216 213 213 214 215 218 223 233 247 263 266 240 233 238 244 226 197 221 231 222 218 215 211 208 201 195 186 173 167 163 155 158 160 157 149 151 155 155 154 147
222 225 215 213 213 211 210 212 218 221 228 234 240 240 208 181 212 226 211 208 215 223 220 219 216 211 206 201 195 184 177 178 174 172 173 172 170 167 168 169 169 170 178
227 227 220 215 215 214 212 215 218 218 222 229 237 228 194 198 218 220 213 213 217 220 217 214 212 208 204 197 192 192 191 191 188 183 179 178 173 175 177 174 177 178 171
233 227 217 216 217 217 217 216 214 217 223 229 238 236 215 208 219 222 220 222 219 217 209 202 207 208 202 197 194 193 195 196 194 188 185 181 179 177 171 172 175 173 175
243 238 230 225 221 222 221 218 216 219 224 227 229 225 210 212 221 223 226 225 217 214 207 202 207 212 208 203 198 194 197 202 198 188 184 183 182 181 177 181 182 178 188
256 247 241 235 226 221 222 223 221 221 223 224 224 223 220 217 219 223 225 222 216 213 205 202 208 213 208 202 203 203 205 202 191 191 187 186 187 185 181 184 189 192 194
277 262 252 244 236 230 228 227 225 223 223 223 223 222 221 219 220 223 222 218 215 215 211 206 208 212 212 208 204 205 207 203 196 186 184 185 188 188 184 185 187 191 193
307 288 272 260 250 240 234 232 230 227 225 225 223 220 218 218 220 221 217 213 213 216 214 210 210 209 208 208 210 208 206 204 201 193 182 183 188 192 188 191 193 191 193